Terug naar catalogus

SL-8 R/B

ActiefLEO
NORAD 16682·ROCKET BODY·🇷🇺 Russia

Gelanceerd Apr 17, 1986 vanaf Plesetsk Cosmodrome

Loading…

Volgende Passages (komende 24 uur)

TLE

VersSource: Space-Track

Epoch: Sep 14, 2026, 02:10 UTC

1 16682U 86030B   26257.09041817  .00000149  00000-0  58625-4 0  9996
2 16682  74.0252 142.1852 0013835  18.1486 141.4269 14.37373802115525

Volg SL-8 R/B in realtime met AllMySat

Download on the App Store